Location: Caltech
(34.1382°N, 118.1253°W)
Time: 09:55:58
(UTC-07:00)

NOSS 3-2 (A) - Visible Passes

Search period start: 27 August 2014 00:00
Search period end: 06 September 2014 00:00
Orbit: 945 x 1264 km, 63.4° (Epoch: 25 July)

Date Brightness Start Highest point End Pass type
(mag) Time Alt. Az. Time Alt. Az. Time Alt. Az.
28 Aug 5.3 05:35:53 10° S 05:41:15 31° ESE 05:46:51 10° NE visible
29 Aug 5.9 04:52:28 10° SE 04:56:20 17° ESE 05:00:18 10° ENE visible
30 Aug 3.8 05:54:57 10° SSW 06:01:08 76° ESE 06:07:42 10° NE visible
31 Aug 4.6 05:10:13 10° S 05:16:01 43° ESE 05:22:06 10° NE visible
01 Sep 5.4 04:26:12 10° SSE 04:31:02 24° ESE 04:36:02 10° ENE visible
02 Sep 5.9 03:43:42 10° SE 03:46:10 13° ESE 03:48:40 10° E visible
02 Sep 3.5 05:29:47 10° SSW 05:36:01 82° WNW 05:42:39 10° NNE visible
03 Sep 4.0 04:46:07 18° S 04:50:49 59° ESE 04:57:13 10° NE visible
04 Sep 4.8 04:02:57 23° SSE 04:05:45 33° ESE 04:11:27 10° NE visible
04 Sep 4.2 05:50:39 10° WSW 05:56:26 38° NW 06:02:35 10° NNE visible
05 Sep 5.5 03:19:43 17° ESE 03:20:50 18° ESE 03:24:59 10° ENE visible
05 Sep 3.6 05:07:09 24° SW 05:10:57 62° WNW 05:17:31 10° NNE visible
